Location: Brachbach
(49.1847°N, 9.7240°E)
Time: 23:20:28
(UTC+00:00)

Meteor 2-5 Rocket - Pass Details

Date: 14 August 2024
Orbit: 833 x 910 km, 81.2° (Epoch: 07 September)

Event Time Altitude Azimuth Distance (km) Brightness Sun altitude
Rises 00:15:17 0° 357° (N) 3,464 8.1 -25.6°
Reaches altitude 10° 00:18:28 10° 15° (NNE) 2,537 7.2 -25.5°
Maximum altitude 00:22:32 19° 60° (ENE) 1,967 6.1 -25.3°
Drops below altitude 10° 00:26:38 10° 105° (ESE) 2,562 6.2 -25.1°
Enters shadow 00:29:42 - 121° (ESE) 3,463 6.7 -25.0°
